This is the latest recevied weather packets stored in our database for station/object N3AVN. If no packets are shown the sender has not sent any weather packets the latest 10 day(s).
| Time | Temp. | Humidity | Pressure | Rain* | Wind** | Luminosity | Snow |
|---|---|---|---|---|---|---|---|
| 1777610924 | 6.67° C | 86% | 1008.8 hPa | 0 mm | - | 0 W/m² | - |
| 1777610620 | 6.67° C | 86% | 1008.5 hPa | 0 mm | - | 0 W/m² | - |
| 1777610318 | 6.67° C | 84% | 1008.4 hPa | 0 mm | - | 0 W/m² | - |
| 1777610015 | 6.67° C | 85% | 1008.3 hPa | 0 mm | - | 0 W/m² | - |
| 1777609712 | 6.67° C | 84% | 1008.3 hPa | 0 mm | - | 0 W/m² | - |
| 1777609409 | 7.22° C | 82% | 1008.1 hPa | 0 mm | - | 0 W/m² | - |
| 1777609107 | 7.78° C | 80% | 1008.1 hPa | 0 mm | - | 0 W/m² | - |
| 1777608804 | 7.78° C | 80% | 1008.2 hPa | 0 mm | - | 0 W/m² | - |
| 1777608501 | 7.78° C | 79% | 1008 hPa | 0 mm | - | 0 W/m² | - |
| 1777608198 | 7.78° C | 79% | 1008.3 hPa | 0 mm | - | 0 W/m² | - |
| 1777607895 | 7.78° C | 80% | 1008.1 hPa | 0 mm | - | 0 W/m² | - |
| 1777607591 | 7.78° C | 80% | 1007.8 hPa | 0 mm | - | 0 W/m² | - |
| 1777607288 | 7.78° C | 78% | 1008 hPa | 0 mm | - | 0 W/m² | - |
| 1777606983 | 8.33° C | 77% | 1007.9 hPa | 0 mm | - | 0 W/m² | - |
| 1777606679 | 8.33° C | 79% | 1007.8 hPa | 0 mm | - | 0 W/m² | - |
| 1777606376 | 8.33° C | 77% | 1007.8 hPa | 0 mm | - | 0 W/m² | - |
| 1777606075 | 8.33° C | 77% | 1007.8 hPa | 0 mm | - | 0 W/m² | - |
| 1777605772 | 8.33° C | 77% | 1007.9 hPa | 0 mm | - | 0 W/m² | - |
| 1777605470 | 7.78° C | 80% | 1007.7 hPa | 0 mm | - | 0 W/m² | - |
| 1777605168 | 7.78° C | 81% | 1007.9 hPa | 0 mm | - | 0 W/m² | - |
| 1777604863 | 7.78° C | 82% | 1007.8 hPa | 0 mm | - | 0 W/m² | - |
| 1777604559 | 7.78° C | 82% | 1007.8 hPa | 0 mm | - | 0 W/m² | - |
| 1777604255 | 7.22° C | 84% | 1007.7 hPa | 0 mm | - | 0 W/m² | - |
| 1777603951 | 7.22° C | 85% | 1007.9 hPa | 0 mm | - | 0 W/m² | - |
| 1777603648 | 7.78° C | 84% | 1007.8 hPa | 0 mm | - | 0 W/m² | - |
* Rain latest hour (hover to see other rain measurements)
** Current wind speed in m/s (hover to see current wind gust speed)